Regional Weather Roundup
Issued by NWS

Home | Current Version | Previous Version | Text Only | Print | Product List | Glossary Off
Versions: 1 2 3 4 5 6 7 8 9 10 11 12 13 14 15 16 17 18 19 20 21 22 23 24 25 26 27 28 29 30 31 32 33 34 35 36 37 38 39 40 41 42 43 44 45 46 47 48 49 50

000
ASUS45 KCYS 300910
RWRWY

WYOMING REGIONAL WEATHER ROUNDUP
NATIONAL WEATHER SERVICE CHEYENNE WY
300 AM MDT SUN AUG 30 2015

NOTE:  "FAIR" INDICATES FEW OR NO CLOUDS BELOW 12,000 FEET
WITH NO SIGNIFICANT WEATHER AND/OR OBSTRUCTIONS TO VISIBILITY.

WYZ001-301000-
YELLOWSTONE NATIONAL PARK

CITY           SKY/WX    TMP DP  RH WIND       PRES   REMARKS
LK YELLOWSTONE   N/A     51  49  92 CALM      30.18F
W YELLOWSTONE  NOT AVBL

$$
WYZ002>013-054>058-071-098>099-301000-
NORTHERN WYOMING

CITY           SKY/WX    TMP DP  RH WIND       PRES   REMARKS
JACKSON        MOCLDY    57  52  82 N6        30.09S THUNDER
CODY           FAIR      72  45  37 NW10G17   29.96S
GREYBULL       FAIR      67  38  34 S5        29.84R
WORLAND        FAIR      67  40  37 CALM      29.85S
SHERIDAN       FAIR      62  45  53 S3        29.81F
BUFFALO        FAIR      77  34  21 CALM      29.91S
GILLETTE       FAIR      70  35  27 S20       29.87F
HULETT         FAIR      79  36  21 S21       29.90S
NEWCASTLE      FAIR      73  36  25 SE10G17   29.95F

$$
WYZ014>020-022>026-101>103-301000-
CENTRAL WYOMING

CITY           SKY/WX    TMP DP  RH WIND       PRES   REMARKS
BIG PINEY      FAIR      54  42  64 N13       30.13F
PINEDALE       PTSUNNY   55  43  62 SE6       30.14F
DUBOIS         LGT RAIN  61  43  51 NW9       30.13F
LANDER         FAIR      75  36  24 SW9       29.96F
RIVERTON       FAIR      70  38  31 S8        29.97F
CASPER         FAIR      62  32  32 W8        30.00F
DOUGLAS        FAIR      61  37  41 CALM      30.00F

$$
WYZ021-027>030-104>119-301000-
SOUTHERN WYOMING

CITY           SKY/WX    TMP DP  RH WIND       PRES   REMARKS
EVANSTON       FAIR      70  37  29 SW16G26   30.13F
KEMMERER       FAIR      61  32  33 S5        30.14F
FORT BRIDGER   SUNNY     64  34  32 S13       30.16F
ROCK SPRINGS   FAIR      67  31  26 SW13      30.12F
DIXON          FAIR      49  36  59 S5        30.20S
RAWLINS        FAIR      67  29  24 SW10      30.16F
SARATOGA       FAIR      55  36  47 SE8       30.20F
LARAMIE        FAIR      50  34  54 S8        30.22S
CHEYENNE       FAIR      57  44  62 W7        30.14S
TORRINGTON     FAIR      65  40  39 E6        29.99S
PINE BLUFFS    FAIR      57  37  47 S9        30.09F

$$



USA.gov is the U.S. government's official web portal to all federal, state and local government web resources and services.